Year,Month,Day,Hour,Minute,Value (Times are PST for temperature in C)
2015,08,12,00,00,22.60
2015,08,12,00,01,22.60
2015,08,12,00,02,22.50
2015,08,12,00,03,22.50
2015,08,12,00,04,22.50
2015,08,12,00,05,22.50
2015,08,12,00,06,22.50
2015,08,12,00,07,22.40
2015,08,12,00,08,22.40
2015,08,12,00,09,22.40
2015,08,12,00,10,22.40
2015,08,12,00,11,22.40
2015,08,12,00,12,22.40
2015,08,12,00,13,22.40
2015,08,12,00,14,22.30
2015,08,12,00,15,22.30
2015,08,12,00,16,22.30
2015,08,12,00,17,22.20
2015,08,12,00,18,22.20
2015,08,12,00,19,22.20
2015,08,12,00,20,22.10
2015,08,12,00,21,22.10
2015,08,12,00,22,22.10
2015,08,12,00,23,22.00
2015,08,12,00,24,22.00
2015,08,12,00,25,21.90
2015,08,12,00,26,21.90
2015,08,12,00,27,21.90
2015,08,12,00,28,21.90
2015,08,12,00,29,21.90
2015,08,12,00,30,21.90
2015,08,12,00,31,21.90
2015,08,12,00,32,21.80
2015,08,12,00,33,21.80
2015,08,12,00,34,21.80
2015,08,12,00,35,21.80
2015,08,12,00,36,21.80
2015,08,12,00,37,21.80
2015,08,12,00,38,21.80
2015,08,12,00,39,21.70
2015,08,12,00,40,21.70
2015,08,12,00,41,21.70
2015,08,12,00,42,21.70
2015,08,12,00,43,21.70
2015,08,12,00,44,21.70
2015,08,12,00,45,21.70
2015,08,12,00,46,21.70
2015,08,12,00,47,21.60
2015,08,12,00,48,21.60
2015,08,12,00,49,21.60
2015,08,12,00,50,21.60
2015,08,12,00,51,21.60
2015,08,12,00,52,21.60
2015,08,12,00,53,21.50
2015,08,12,00,54,21.50
2015,08,12,00,55,21.50
2015,08,12,00,56,21.40
2015,08,12,00,57,21.40
2015,08,12,00,58,21.40
2015,08,12,00,59,21.30
2015,08,12,01,00,21.30
2015,08,12,01,01,21.30
2015,08,12,01,02,21.20
2015,08,12,01,03,21.20
2015,08,12,01,04,21.20
2015,08,12,01,05,21.10
2015,08,12,01,06,21.10
2015,08,12,01,07,21.10
2015,08,12,01,08,21.00
2015,08,12,01,09,21.00
2015,08,12,01,10,21.00
2015,08,12,01,11,20.90
2015,08,12,01,12,20.90
2015,08,12,01,13,20.90
2015,08,12,01,14,20.80
2015,08,12,01,15,20.80
2015,08,12,01,16,20.80
2015,08,12,01,17,20.80
2015,08,12,01,18,20.70
2015,08,12,01,19,20.70
2015,08,12,01,20,20.70
2015,08,12,01,21,20.60
2015,08,12,01,22,20.60
2015,08,12,01,23,20.60
2015,08,12,01,24,20.60
2015,08,12,01,25,20.50
2015,08,12,01,26,20.50
2015,08,12,01,27,20.40
2015,08,12,01,28,20.40
2015,08,12,01,29,20.30
2015,08,12,01,30,20.30
2015,08,12,01,31,20.30
2015,08,12,01,32,20.20
2015,08,12,01,33,20.20
2015,08,12,01,34,20.20
2015,08,12,01,35,20.10
2015,08,12,01,36,20.00
2015,08,12,01,37,20.00
2015,08,12,01,38,19.90
2015,08,12,01,39,19.90
2015,08,12,01,40,19.80
2015,08,12,01,41,19.70
2015,08,12,01,42,19.70
2015,08,12,01,43,19.60
2015,08,12,01,44,19.50
2015,08,12,01,45,19.40
2015,08,12,01,46,19.30
2015,08,12,01,47,19.20
2015,08,12,01,48,19.20
2015,08,12,01,49,19.20
2015,08,12,01,50,19.10
2015,08,12,01,51,19.00
2015,08,12,01,52,19.00
2015,08,12,01,53,18.90
2015,08,12,01,54,18.90
2015,08,12,01,55,18.80
2015,08,12,01,56,18.80
2015,08,12,01,57,18.70
2015,08,12,01,58,18.70
2015,08,12,01,59,18.70
2015,08,12,02,00,18.60
2015,08,12,02,01,18.60
2015,08,12,02,02,18.60
2015,08,12,02,03,18.50
2015,08,12,02,04,18.50
2015,08,12,02,05,18.50
2015,08,12,02,06,18.40
2015,08,12,02,07,18.40
2015,08,12,02,08,18.40
2015,08,12,02,09,18.30
2015,08,12,02,10,18.30
2015,08,12,02,11,18.30
2015,08,12,02,12,18.30
2015,08,12,02,13,18.20
2015,08,12,02,14,18.20
2015,08,12,02,15,18.20
2015,08,12,02,16,18.20
2015,08,12,02,17,18.20
2015,08,12,02,18,18.20
2015,08,12,02,19,18.10
2015,08,12,02,20,18.10
2015,08,12,02,21,18.10
2015,08,12,02,22,18.10
2015,08,12,02,23,18.10
2015,08,12,02,24,18.00
2015,08,12,02,25,18.00
2015,08,12,02,26,18.00
2015,08,12,02,27,18.00
2015,08,12,02,28,18.00
2015,08,12,02,29,17.90
2015,08,12,02,30,17.90
2015,08,12,02,31,17.90
2015,08,12,02,32,17.90
2015,08,12,02,33,17.90
2015,08,12,02,34,17.90
2015,08,12,02,35,17.90
2015,08,12,02,36,17.90
2015,08,12,02,37,17.90
2015,08,12,02,38,17.80
2015,08,12,02,39,17.80
2015,08,12,02,40,17.80
2015,08,12,02,41,17.80
2015,08,12,02,42,17.80
2015,08,12,02,43,17.80
2015,08,12,02,44,17.70
2015,08,12,02,45,17.70
2015,08,12,02,46,17.70
2015,08,12,02,47,17.60
2015,08,12,02,48,17.60
2015,08,12,02,49,17.60
2015,08,12,02,50,17.60
2015,08,12,02,51,17.60
2015,08,12,02,52,17.50
2015,08,12,02,53,17.50
2015,08,12,02,54,17.50
2015,08,12,02,55,17.40
2015,08,12,02,56,17.40
2015,08,12,02,57,17.40
2015,08,12,02,58,17.40
2015,08,12,02,59,17.40
2015,08,12,03,00,17.40
2015,08,12,03,01,17.30
2015,08,12,03,02,17.30
2015,08,12,03,03,17.30
2015,08,12,03,04,17.30
2015,08,12,03,05,17.30
2015,08,12,03,06,17.30
2015,08,12,03,07,17.30
2015,08,12,03,08,17.30
2015,08,12,03,09,17.30
2015,08,12,03,10,17.30
2015,08,12,03,11,17.30
2015,08,12,03,12,17.20
2015,08,12,03,13,17.20
2015,08,12,03,14,17.20
2015,08,12,03,15,17.20
2015,08,12,03,16,17.20
2015,08,12,03,17,17.20
2015,08,12,03,18,17.20
2015,08,12,03,19,17.20
2015,08,12,03,20,17.20
2015,08,12,03,21,17.20
2015,08,12,03,22,17.20
2015,08,12,03,23,17.10
2015,08,12,03,24,17.10
2015,08,12,03,25,17.10
2015,08,12,03,26,17.10
2015,08,12,03,27,17.10
2015,08,12,03,28,17.10
2015,08,12,03,29,17.10
2015,08,12,03,30,17.10
2015,08,12,03,31,17.10
2015,08,12,03,32,17.10
2015,08,12,03,33,17.00
2015,08,12,03,34,17.00
2015,08,12,03,35,17.00
2015,08,12,03,36,17.00
2015,08,12,03,37,17.00
2015,08,12,03,38,17.00
2015,08,12,03,39,17.00
2015,08,12,03,40,17.00
2015,08,12,03,41,17.00
2015,08,12,03,42,17.00
2015,08,12,03,43,17.00
2015,08,12,03,44,17.00
2015,08,12,03,45,17.00
2015,08,12,03,46,17.00
2015,08,12,03,47,16.90
2015,08,12,03,48,17.00
2015,08,12,03,49,16.90
2015,08,12,03,50,17.00
2015,08,12,03,51,17.00
2015,08,12,03,52,17.00
2015,08,12,03,53,16.90
2015,08,12,03,54,16.90
2015,08,12,03,55,16.90
2015,08,12,03,56,16.90
2015,08,12,03,57,16.90
2015,08,12,03,58,16.90
2015,08,12,03,59,16.90
2015,08,12,04,00,16.90
2015,08,12,04,01,16.90
2015,08,12,04,02,16.90
2015,08,12,04,03,16.90
2015,08,12,04,04,16.80
2015,08,12,04,05,16.80
2015,08,12,04,06,16.80
2015,08,12,04,07,16.80
2015,08,12,04,08,16.80
2015,08,12,04,09,16.80
2015,08,12,04,10,16.80
2015,08,12,04,11,16.70
2015,08,12,04,12,16.70
2015,08,12,04,13,16.70
2015,08,12,04,14,16.70
2015,08,12,04,15,16.70
2015,08,12,04,16,16.70
2015,08,12,04,17,16.70
2015,08,12,04,18,16.70
2015,08,12,04,19,16.60
2015,08,12,04,20,16.60
2015,08,12,04,21,16.60
2015,08,12,04,22,16.60
2015,08,12,04,23,16.60
2015,08,12,04,24,16.50
2015,08,12,04,25,16.50
2015,08,12,04,26,16.50
2015,08,12,04,27,16.50
2015,08,12,04,28,16.40
2015,08,12,04,29,16.40
2015,08,12,04,30,16.40
2015,08,12,04,31,16.40
2015,08,12,04,32,16.40
2015,08,12,04,33,16.30
2015,08,12,04,34,16.30
2015,08,12,04,35,16.30
2015,08,12,04,36,16.30
2015,08,12,04,37,16.20
2015,08,12,04,38,16.20
2015,08,12,04,39,16.20
2015,08,12,04,40,16.20
2015,08,12,04,41,16.10
2015,08,12,04,42,16.10
2015,08,12,04,43,16.10
2015,08,12,04,44,16.00
2015,08,12,04,45,16.00
2015,08,12,04,46,16.00
2015,08,12,04,47,15.90
2015,08,12,04,48,15.90
2015,08,12,04,49,15.90
2015,08,12,04,50,15.90
2015,08,12,04,51,15.80
2015,08,12,04,52,15.80
2015,08,12,04,53,15.80
2015,08,12,04,54,15.80
2015,08,12,04,55,15.80
2015,08,12,04,56,15.70
2015,08,12,04,57,15.70
2015,08,12,04,58,15.70
2015,08,12,04,59,15.70
2015,08,12,05,00,15.70
2015,08,12,05,01,15.70
2015,08,12,05,02,15.70
2015,08,12,05,03,15.70
2015,08,12,05,04,15.60
2015,08,12,05,05,15.60
2015,08,12,05,06,15.60
2015,08,12,05,07,15.60
2015,08,12,05,08,15.50
2015,08,12,05,09,15.50
2015,08,12,05,10,15.50
2015,08,12,05,11,15.50
2015,08,12,05,12,15.40
2015,08,12,05,13,15.40
2015,08,12,05,14,15.40
2015,08,12,05,15,15.40
2015,08,12,05,16,15.40
2015,08,12,05,17,15.40
2015,08,12,05,18,15.30
2015,08,12,05,19,15.30
2015,08,12,05,20,15.30
2015,08,12,05,21,15.30
2015,08,12,05,22,15.30
2015,08,12,05,23,15.30
2015,08,12,05,24,15.20
2015,08,12,05,25,15.20
2015,08,12,05,26,15.20
2015,08,12,05,27,15.20
2015,08,12,05,28,15.20
2015,08,12,05,29,15.20
2015,08,12,05,30,15.20
2015,08,12,05,31,15.20
2015,08,12,05,32,15.20
2015,08,12,05,33,15.20
2015,08,12,05,34,15.20
2015,08,12,05,35,15.20
2015,08,12,05,36,15.20
2015,08,12,05,37,15.20
2015,08,12,05,38,15.20
2015,08,12,05,39,15.20
2015,08,12,05,40,15.10
2015,08,12,05,41,15.10
2015,08,12,05,42,15.10
2015,08,12,05,43,15.10
2015,08,12,05,44,15.10
2015,08,12,05,45,15.10
2015,08,12,05,46,15.10
2015,08,12,05,47,15.10
2015,08,12,05,48,15.00
2015,08,12,05,49,15.00
2015,08,12,05,50,15.00
2015,08,12,05,51,14.90
2015,08,12,05,52,14.90
2015,08,12,05,53,14.90
2015,08,12,05,54,14.90
2015,08,12,05,55,14.90
2015,08,12,05,56,14.80
2015,08,12,05,57,14.80
2015,08,12,05,58,14.80
2015,08,12,05,59,14.80
2015,08,12,06,00,14.80
2015,08,12,06,01,14.80
2015,08,12,06,02,14.80
2015,08,12,06,03,14.80
2015,08,12,06,04,14.70
2015,08,12,06,05,14.70
2015,08,12,06,06,14.70
2015,08,12,06,07,14.70
2015,08,12,06,08,14.80
2015,08,12,06,09,14.70
2015,08,12,06,10,14.70
2015,08,12,06,11,14.70
2015,08,12,06,12,14.70
2015,08,12,06,13,14.70
2015,08,12,06,14,14.70
2015,08,12,06,15,14.70
2015,08,12,06,16,14.70
2015,08,12,06,17,14.70
2015,08,12,06,18,14.70
2015,08,12,06,19,14.70
2015,08,12,06,20,14.70
2015,08,12,06,21,14.70
2015,08,12,06,22,14.70
2015,08,12,06,23,14.70
2015,08,12,06,24,14.70
2015,08,12,06,25,14.70
2015,08,12,06,26,14.70
2015,08,12,06,27,14.70
2015,08,12,06,28,14.70
2015,08,12,06,29,14.70
2015,08,12,06,30,14.70
2015,08,12,06,31,14.70
2015,08,12,06,32,14.80
2015,08,12,06,33,14.80
2015,08,12,06,34,14.80
2015,08,12,06,35,14.80
2015,08,12,06,36,14.80
2015,08,12,06,37,14.80
2015,08,12,06,38,14.80
2015,08,12,06,39,14.80
2015,08,12,06,40,14.80
2015,08,12,06,41,14.80
2015,08,12,06,42,14.80
2015,08,12,06,43,14.90
2015,08,12,06,44,14.90
2015,08,12,06,45,14.90
2015,08,12,06,46,14.90
2015,08,12,06,47,14.90
2015,08,12,06,48,15.00
2015,08,12,06,49,15.00
2015,08,12,06,50,15.10
2015,08,12,06,51,15.10
2015,08,12,06,52,15.20
2015,08,12,06,53,15.20
2015,08,12,06,54,15.30
2015,08,12,06,55,15.30
2015,08,12,06,56,15.30
2015,08,12,06,57,15.40
2015,08,12,06,58,15.40
2015,08,12,06,59,15.40
2015,08,12,07,00,15.50
2015,08,12,07,01,15.50
2015,08,12,07,02,15.50
2015,08,12,07,03,15.60
2015,08,12,07,04,15.60
2015,08,12,07,05,15.60
2015,08,12,07,06,15.70
2015,08,12,07,07,15.70
2015,08,12,07,08,15.70
2015,08,12,07,09,15.70
2015,08,12,07,10,15.70
2015,08,12,07,11,15.80
2015,08,12,07,12,15.80
2015,08,12,07,13,15.80
2015,08,12,07,14,15.80
2015,08,12,07,15,15.80
2015,08,12,07,16,15.80
2015,08,12,07,17,15.80
2015,08,12,07,18,15.80
2015,08,12,07,19,15.80
2015,08,12,07,20,15.80
2015,08,12,07,21,15.80
2015,08,12,07,22,15.80
2015,08,12,07,23,15.80
2015,08,12,07,24,15.80
2015,08,12,07,25,15.90
2015,08,12,07,26,15.90
2015,08,12,07,27,15.90
2015,08,12,07,28,15.90
2015,08,12,07,29,15.90
2015,08,12,07,30,16.00
2015,08,12,07,31,16.00
2015,08,12,07,32,16.10
2015,08,12,07,33,16.10
2015,08,12,07,34,16.10
2015,08,12,07,35,16.10
2015,08,12,07,36,16.20
2015,08,12,07,37,16.20
2015,08,12,07,38,16.30
2015,08,12,07,39,16.30
2015,08,12,07,40,16.30
2015,08,12,07,41,16.40
2015,08,12,07,42,16.40
2015,08,12,07,43,16.50
2015,08,12,07,44,16.50
2015,08,12,07,45,16.60
2015,08,12,07,46,16.60
2015,08,12,07,47,16.60
2015,08,12,07,48,16.70
2015,08,12,07,49,16.80
2015,08,12,07,50,16.80
2015,08,12,07,51,16.80
2015,08,12,07,52,16.80
2015,08,12,07,53,16.90
2015,08,12,07,54,16.90
2015,08,12,07,55,16.90
2015,08,12,07,56,17.00
2015,08,12,07,57,17.00
2015,08,12,07,58,17.10
2015,08,12,07,59,17.10
2015,08,12,08,00,17.20
2015,08,12,08,01,17.20
2015,08,12,08,02,17.30
2015,08,12,08,03,17.30
2015,08,12,08,04,17.30
2015,08,12,08,05,17.30
2015,08,12,08,06,17.40
2015,08,12,08,07,17.40
2015,08,12,08,08,17.40
2015,08,12,08,09,17.50
2015,08,12,08,10,17.60
2015,08,12,08,11,17.60
2015,08,12,08,12,17.70
2015,08,12,08,13,17.80
2015,08,12,08,14,17.80
2015,08,12,08,15,17.90
2015,08,12,08,16,18.00
2015,08,12,08,17,18.10
2015,08,12,08,18,18.10
2015,08,12,08,19,18.20
2015,08,12,08,20,18.20
2015,08,12,08,21,18.30
2015,08,12,08,22,18.30
2015,08,12,08,23,18.30
2015,08,12,08,24,18.40
2015,08,12,08,25,18.50
2015,08,12,08,26,18.50
2015,08,12,08,27,18.60
2015,08,12,08,28,18.70
2015,08,12,08,29,18.80
2015,08,12,08,30,18.90
2015,08,12,08,31,19.00
2015,08,12,08,32,19.10
2015,08,12,08,33,19.20
2015,08,12,08,34,19.30
2015,08,12,08,35,19.30
2015,08,12,08,36,19.30
2015,08,12,08,37,19.30
2015,08,12,08,38,19.40
2015,08,12,08,39,19.40
2015,08,12,08,40,19.50
2015,08,12,08,41,19.50
2015,08,12,08,42,19.60
2015,08,12,08,43,19.70
2015,08,12,08,44,19.70
2015,08,12,08,45,19.80
2015,08,12,08,46,19.80
2015,08,12,08,47,19.80
2015,08,12,08,48,19.90
2015,08,12,08,49,20.00
2015,08,12,08,50,20.00
2015,08,12,08,51,20.10
2015,08,12,08,52,20.10
2015,08,12,08,53,20.10
2015,08,12,08,54,20.20
2015,08,12,08,55,20.20
2015,08,12,08,56,20.30
2015,08,12,08,57,20.30
2015,08,12,08,58,20.30
2015,08,12,08,59,20.40
2015,08,12,09,00,20.50
2015,08,12,09,01,20.50
2015,08,12,09,02,20.60
2015,08,12,09,03,20.70
2015,08,12,09,04,20.80
2015,08,12,09,05,20.90
2015,08,12,09,06,21.00
2015,08,12,09,07,21.10
2015,08,12,09,08,21.20
2015,08,12,09,09,21.30
2015,08,12,09,10,21.40
2015,08,12,09,11,21.50
2015,08,12,09,12,21.60
2015,08,12,09,13,21.60
2015,08,12,09,14,21.70
2015,08,12,09,15,21.80
2015,08,12,09,16,21.90
2015,08,12,09,17,22.00
2015,08,12,09,18,22.00
2015,08,12,09,19,22.10
2015,08,12,09,20,22.10
2015,08,12,09,21,22.10
2015,08,12,09,22,22.10
2015,08,12,09,23,22.10
2015,08,12,09,24,22.10
2015,08,12,09,25,22.10
2015,08,12,09,26,22.10
2015,08,12,09,27,22.10
2015,08,12,09,28,22.20
2015,08,12,09,29,22.20
2015,08,12,09,30,22.20
2015,08,12,09,31,22.20
2015,08,12,09,32,22.20
2015,08,12,09,33,22.20
2015,08,12,09,34,22.30
2015,08,12,09,35,22.40
2015,08,12,09,36,22.40
2015,08,12,09,37,22.50
2015,08,12,09,38,22.60
2015,08,12,09,39,22.60
2015,08,12,09,40,22.70
2015,08,12,09,41,22.80
2015,08,12,09,42,22.80
2015,08,12,09,43,22.80
2015,08,12,09,44,22.80
2015,08,12,09,45,22.80
2015,08,12,09,46,22.90
2015,08,12,09,47,22.90
2015,08,12,09,48,23.00
2015,08,12,09,49,23.00
2015,08,12,09,50,23.00
2015,08,12,09,51,23.10
2015,08,12,09,52,23.20
2015,08,12,09,53,23.20
2015,08,12,09,54,23.30
2015,08,12,09,55,23.40
2015,08,12,09,56,23.40
2015,08,12,09,57,23.50
2015,08,12,09,58,23.60
2015,08,12,09,59,23.60
2015,08,12,10,00,23.70
2015,08,12,10,01,23.70
2015,08,12,10,02,23.70
2015,08,12,10,03,23.70
2015,08,12,10,04,23.70
2015,08,12,10,05,23.70
2015,08,12,10,06,23.70
2015,08,12,10,07,23.80
2015,08,12,10,08,23.90
2015,08,12,10,09,23.90
2015,08,12,10,10,24.00
2015,08,12,10,11,24.00
2015,08,12,10,12,23.90
2015,08,12,10,13,23.80
2015,08,12,10,14,23.60
2015,08,12,10,15,23.50
2015,08,12,10,16,23.30
2015,08,12,10,17,23.20
2015,08,12,10,18,23.20
2015,08,12,10,19,23.10
2015,08,12,10,20,23.10
2015,08,12,10,21,23.00
2015,08,12,10,22,23.00
2015,08,12,10,23,22.90
2015,08,12,10,24,22.90
2015,08,12,10,25,22.90
2015,08,12,10,26,22.80
2015,08,12,10,27,22.80
2015,08,12,10,28,22.80
2015,08,12,10,29,22.70
2015,08,12,10,30,22.70
2015,08,12,10,31,22.70
2015,08,12,10,32,22.70
2015,08,12,10,33,22.70
2015,08,12,10,34,22.70
2015,08,12,10,35,22.80
2015,08,12,10,36,22.80
2015,08,12,10,37,22.80
2015,08,12,10,38,22.80
2015,08,12,10,39,22.90
2015,08,12,10,40,22.80
2015,08,12,10,41,22.80
2015,08,12,10,42,22.80
2015,08,12,10,43,22.80
2015,08,12,10,44,22.90
2015,08,12,10,45,22.90
2015,08,12,10,46,23.00
2015,08,12,10,47,23.00
2015,08,12,10,48,23.00
2015,08,12,10,49,23.00
2015,08,12,10,50,23.10
2015,08,12,10,51,23.10
2015,08,12,10,52,23.10
2015,08,12,10,53,23.10
2015,08,12,10,54,23.20
2015,08,12,10,55,23.20
2015,08,12,10,56,23.20
2015,08,12,10,57,23.20
2015,08,12,10,58,23.20
2015,08,12,10,59,23.20
2015,08,12,11,00,23.20
2015,08,12,11,01,23.30
2015,08,12,11,02,23.30
2015,08,12,11,03,23.30
2015,08,12,11,04,23.40
2015,08,12,11,05,23.50
2015,08,12,11,06,23.60
2015,08,12,11,07,23.60
2015,08,12,11,08,23.60
2015,08,12,11,09,23.70
2015,08,12,11,10,23.70
2015,08,12,11,11,23.80
2015,08,12,11,12,23.80
2015,08,12,11,13,23.90
2015,08,12,11,14,24.00
2015,08,12,11,15,24.10
2015,08,12,11,16,24.10
2015,08,12,11,17,24.20
2015,08,12,11,18,24.30
2015,08,12,11,19,24.40
2015,08,12,11,20,24.40
2015,08,12,11,21,24.40
2015,08,12,11,22,24.40
2015,08,12,11,23,24.30
2015,08,12,11,24,24.30
2015,08,12,11,25,24.30
2015,08,12,11,26,24.30
2015,08,12,11,27,24.40
2015,08,12,11,28,24.60
2015,08,12,11,29,24.70
2015,08,12,11,30,24.90
2015,08,12,11,31,25.00
2015,08,12,11,32,25.20
2015,08,12,11,33,25.30
2015,08,12,11,34,25.30
2015,08,12,11,35,25.30
2015,08,12,11,36,25.30
2015,08,12,11,37,25.20
2015,08,12,11,38,25.10
2015,08,12,11,39,25.10
2015,08,12,11,40,25.10
2015,08,12,11,41,25.10
2015,08,12,11,42,25.10
2015,08,12,11,43,25.10
2015,08,12,11,44,25.00
2015,08,12,11,45,24.90
2015,08,12,11,46,24.80
2015,08,12,11,47,24.70
2015,08,12,11,48,24.70
2015,08,12,11,49,24.70
2015,08,12,11,50,24.70
2015,08,12,11,51,24.70
2015,08,12,11,52,24.70
2015,08,12,11,53,24.70
2015,08,12,11,54,24.70
2015,08,12,11,55,24.80
2015,08,12,11,56,24.80
2015,08,12,11,57,24.90
2015,08,12,11,58,24.90
2015,08,12,11,59,24.90
2015,08,12,12,00,24.90
2015,08,12,12,01,24.90
2015,08,12,12,02,25.00
2015,08,12,12,03,25.00
2015,08,12,12,04,25.10
2015,08,12,12,05,25.20
2015,08,12,12,06,25.30
2015,08,12,12,07,25.40
2015,08,12,12,08,25.60
2015,08,12,12,09,25.80
2015,08,12,12,10,25.90
2015,08,12,12,11,26.10
2015,08,12,12,12,26.20
2015,08,12,12,13,26.30
2015,08,12,12,14,26.40
2015,08,12,12,15,26.50
2015,08,12,12,16,26.60
2015,08,12,12,17,26.60
2015,08,12,12,18,26.60
2015,08,12,12,19,26.50
2015,08,12,12,20,26.50
2015,08,12,12,21,26.60
2015,08,12,12,22,26.60
2015,08,12,12,23,26.60
2015,08,12,12,24,26.70
2015,08,12,12,25,26.80
2015,08,12,12,26,26.90
2015,08,12,12,27,27.00
2015,08,12,12,28,27.20
2015,08,12,12,29,27.30
2015,08,12,12,30,27.40
2015,08,12,12,31,27.50
2015,08,12,12,32,27.60
2015,08,12,12,33,27.70
2015,08,12,12,34,27.70
2015,08,12,12,35,27.70
2015,08,12,12,36,27.70
2015,08,12,12,37,27.70
2015,08,12,12,38,27.70
2015,08,12,12,39,27.70
2015,08,12,12,40,27.70
2015,08,12,12,41,27.70
2015,08,12,12,42,27.80
2015,08,12,12,43,27.80
2015,08,12,12,44,27.90
2015,08,12,12,45,27.90
2015,08,12,12,46,28.00
2015,08,12,12,47,28.00
2015,08,12,12,48,28.10
2015,08,12,12,49,28.10
2015,08,12,12,50,28.20
2015,08,12,12,51,28.10
2015,08,12,12,52,27.90
2015,08,12,12,53,27.70
2015,08,12,12,54,27.40
2015,08,12,12,55,27.30
2015,08,12,12,56,27.10
2015,08,12,12,57,27.10
2015,08,12,12,58,27.10
2015,08,12,12,59,27.00
2015,08,12,13,00,27.00
2015,08,12,13,01,26.90
2015,08,12,13,02,26.90
2015,08,12,13,03,26.80
2015,08,12,13,04,26.80
2015,08,12,13,05,26.70
2015,08,12,13,06,26.70
2015,08,12,13,07,26.70
2015,08,12,13,08,26.70
2015,08,12,13,09,26.70
2015,08,12,13,10,26.60
2015,08,12,13,11,26.60
2015,08,12,13,12,26.60
2015,08,12,13,13,26.50
2015,08,12,13,14,26.60
2015,08,12,13,15,26.60
2015,08,12,13,16,26.60
2015,08,12,13,17,26.50
2015,08,12,13,18,26.50
2015,08,12,13,19,26.50
2015,08,12,13,20,26.60
2015,08,12,13,21,26.50
2015,08,12,13,22,26.50
2015,08,12,13,23,26.50
2015,08,12,13,24,26.60
2015,08,12,13,25,26.60
2015,08,12,13,26,26.60
2015,08,12,13,27,26.60
2015,08,12,13,28,26.60
2015,08,12,13,29,26.60
2015,08,12,13,30,26.60
2015,08,12,13,31,26.60
2015,08,12,13,32,26.60
2015,08,12,13,33,26.70
2015,08,12,13,34,26.70
2015,08,12,13,35,26.70
2015,08,12,13,36,26.70
2015,08,12,13,37,26.70
2015,08,12,13,38,26.70
2015,08,12,13,39,26.70
2015,08,12,13,40,26.80
2015,08,12,13,41,26.70
2015,08,12,13,42,26.70
2015,08,12,13,43,26.70
2015,08,12,13,44,26.60
2015,08,12,13,45,26.60
2015,08,12,13,46,26.60
2015,08,12,13,47,26.50
2015,08,12,13,48,26.40
2015,08,12,13,49,26.40
2015,08,12,13,50,26.50
2015,08,12,13,51,26.50
2015,08,12,13,52,26.50
2015,08,12,13,53,26.50
2015,08,12,13,54,26.50
2015,08,12,13,55,26.50
2015,08,12,13,56,26.60
2015,08,12,13,57,26.60
2015,08,12,13,58,26.60
2015,08,12,13,59,26.70
2015,08,12,14,00,26.80
2015,08,12,14,01,26.80
2015,08,12,14,02,26.90
2015,08,12,14,03,26.90
2015,08,12,14,04,26.80
2015,08,12,14,05,26.90
2015,08,12,14,06,26.90
2015,08,12,14,07,27.00
2015,08,12,14,08,27.00
2015,08,12,14,09,27.00
2015,08,12,14,10,27.10
2015,08,12,14,11,27.00
2015,08,12,14,12,27.00
2015,08,12,14,13,27.00
2015,08,12,14,14,27.10
2015,08,12,14,15,27.10
2015,08,12,14,16,27.10
2015,08,12,14,17,27.10
2015,08,12,14,18,27.10
2015,08,12,14,19,27.20
2015,08,12,14,20,27.20
2015,08,12,14,21,27.20
2015,08,12,14,22,27.30
2015,08,12,14,23,27.30
2015,08,12,14,24,27.30
2015,08,12,14,25,27.30
2015,08,12,14,26,27.30
2015,08,12,14,27,27.30
2015,08,12,14,28,27.30
2015,08,12,14,29,27.30
2015,08,12,14,30,27.30
2015,08,12,14,31,27.30
2015,08,12,14,32,27.30
2015,08,12,14,33,27.40
2015,08,12,14,34,27.40
2015,08,12,14,35,27.40
2015,08,12,14,36,27.40
2015,08,12,14,37,27.40
2015,08,12,14,38,27.40
2015,08,12,14,39,27.30
2015,08,12,14,40,27.30
2015,08,12,14,41,27.30
2015,08,12,14,42,27.30
2015,08,12,14,43,27.30
2015,08,12,14,44,27.30
2015,08,12,14,45,27.30
2015,08,12,14,46,27.40
2015,08,12,14,47,27.40
2015,08,12,14,48,27.40
2015,08,12,14,49,27.30
2015,08,12,14,50,27.30
2015,08,12,14,51,27.30
2015,08,12,14,52,27.20
2015,08,12,14,53,27.10
2015,08,12,14,54,27.10
2015,08,12,14,55,27.10
2015,08,12,14,56,27.10
2015,08,12,14,57,27.20
2015,08,12,14,58,27.20
2015,08,12,14,59,27.10
2015,08,12,15,00,27.10
2015,08,12,15,01,27.10
2015,08,12,15,02,27.10
2015,08,12,15,03,27.00
2015,08,12,15,04,27.00
2015,08,12,15,05,26.90
2015,08,12,15,06,26.90
2015,08,12,15,07,26.90
2015,08,12,15,08,26.90
2015,08,12,15,09,26.80
2015,08,12,15,10,26.80
2015,08,12,15,11,26.90
2015,08,12,15,12,27.00
2015,08,12,15,13,27.00
2015,08,12,15,14,27.10
2015,08,12,15,15,27.10
2015,08,12,15,16,27.20
2015,08,12,15,17,27.20
2015,08,12,15,18,27.30
2015,08,12,15,19,27.30
2015,08,12,15,20,27.30
2015,08,12,15,21,27.30
2015,08,12,15,22,27.40
2015,08,12,15,23,27.40
2015,08,12,15,24,27.40
2015,08,12,15,25,27.40
2015,08,12,15,26,27.40
2015,08,12,15,27,27.40
2015,08,12,15,28,27.40
2015,08,12,15,29,27.50
2015,08,12,15,30,27.50
2015,08,12,15,31,27.60
2015,08,12,15,32,27.70
2015,08,12,15,33,27.70
2015,08,12,15,34,27.80
2015,08,12,15,35,27.80
2015,08,12,15,36,27.80
2015,08,12,15,37,27.80
2015,08,12,15,38,27.70
2015,08,12,15,39,27.70
2015,08,12,15,40,27.70
2015,08,12,15,41,27.70
2015,08,12,15,42,27.70
2015,08,12,15,43,27.70
2015,08,12,15,44,27.70
2015,08,12,15,45,27.80
2015,08,12,15,46,27.80
2015,08,12,15,47,27.90
2015,08,12,15,48,27.90
2015,08,12,15,49,27.90
2015,08,12,15,50,27.90
2015,08,12,15,51,27.90
2015,08,12,15,52,27.90
2015,08,12,15,53,28.00
2015,08,12,15,54,28.00
2015,08,12,15,55,28.00
2015,08,12,15,56,28.00
2015,08,12,15,57,28.00
2015,08,12,15,58,28.10
2015,08,12,15,59,28.10
2015,08,12,16,00,28.10
2015,08,12,16,01,28.10
2015,08,12,16,02,28.20
2015,08,12,16,03,28.20
2015,08,12,16,04,28.20
2015,08,12,16,05,28.20
2015,08,12,16,06,28.20
2015,08,12,16,07,28.20
2015,08,12,16,08,28.20
2015,08,12,16,09,28.30
2015,08,12,16,10,28.30
2015,08,12,16,11,28.30
2015,08,12,16,12,28.30
2015,08,12,16,13,28.30
2015,08,12,16,14,28.20
2015,08,12,16,15,28.20
2015,08,12,16,16,28.30
2015,08,12,16,17,28.40
2015,08,12,16,18,28.40
2015,08,12,16,19,28.40
2015,08,12,16,20,28.40
2015,08,12,16,21,28.50
2015,08,12,16,22,28.50
2015,08,12,16,23,28.50
2015,08,12,16,24,28.50
2015,08,12,16,25,28.50
2015,08,12,16,26,28.40
2015,08,12,16,27,28.50
2015,08,12,16,28,28.50
2015,08,12,16,29,28.60
2015,08,12,16,30,28.60
2015,08,12,16,31,28.60
2015,08,12,16,32,28.70
2015,08,12,16,33,28.70
2015,08,12,16,34,28.70
2015,08,12,16,35,28.70
2015,08,12,16,36,28.70
2015,08,12,16,37,28.70
2015,08,12,16,38,28.70
2015,08,12,16,39,28.70
2015,08,12,16,40,28.70
2015,08,12,16,41,28.70
2015,08,12,16,42,28.70
2015,08,12,16,43,28.70
2015,08,12,16,44,28.70
2015,08,12,16,45,28.70
2015,08,12,16,46,28.70
2015,08,12,16,47,28.80
2015,08,12,16,48,28.80
2015,08,12,16,49,28.80
2015,08,12,16,50,28.80
2015,08,12,16,51,28.80
2015,08,12,16,52,28.90
2015,08,12,16,53,28.90
2015,08,12,16,54,28.90
2015,08,12,16,55,28.90
2015,08,12,16,56,28.90
2015,08,12,16,57,29.00
2015,08,12,16,58,29.00
2015,08,12,16,59,29.10
2015,08,12,17,00,29.10
2015,08,12,17,01,29.20
2015,08,12,17,02,29.20
2015,08,12,17,03,29.20
2015,08,12,17,04,29.20
2015,08,12,17,05,29.30
2015,08,12,17,06,29.30
2015,08,12,17,07,29.30
2015,08,12,17,08,29.30
2015,08,12,17,09,29.30
2015,08,12,17,10,29.30
2015,08,12,17,11,29.30
2015,08,12,17,12,29.40
2015,08,12,17,13,29.40
2015,08,12,17,14,29.40
2015,08,12,17,15,29.40
2015,08,12,17,16,29.40
2015,08,12,17,17,29.40
2015,08,12,17,18,29.40
2015,08,12,17,19,29.40